Weather History for KWJF - July, 2013

Change the Weather History Date:

Sunday, July 21, 2013

  Actual Average Record
Temperature  
Mean Temperature 81 °F 83 °F  
Max Temperature 92 °F 99 °F 107 °F (2009)
Min Temperature 70 °F 67 °F 50 °F (1972)
Degree Days  
Heating Degree Days 0    
Month to date heating degree days 0  
Since 1 June heating degree days 0  
Since 1 July heating degree days 0  
Cooling Degree Days 16    
Month to date cooling degree days 436  
Year to date cooling degree days 1161  
Since 1 June cooling degree days 903  
Growing Degree Days 32 (Base 50)    
Moisture  
Dew Point 54 °F    
Average Humidity 40    
Maximum Humidity 50    
Minimum Humidity 29    
Precipitation  
Precipitation 0.02 in 0.00 in 0.02 in (1988)
Month to date precipitation 0.02 0.06  
Year to date precipitation 1.12 4.97  
Since 1 July precipitation 0.02 0.06  
Snow  
Snow 0.00 in - 0.00 in ()
Month to date snowfall 0.0  
Since 1 June snowfall 0.0  
Since 1 July snowfall 0.0  
Snow Depth 0.00 in    
Sea Level Pressure  
Sea Level Pressure 29.82 in    
Wind  
Wind Speed 10 mph (WSW)    
Max Wind Speed 22 mph    
Max Gust Speed 26 mph    
Visibility 10 miles    
Events Rain    
T = Trace of Precipitation, MM = Missing Value Source: NWS Daily Summary

Daily Weather History Graph

Daily Weather History Graph

Search for Another Location

Airport or City:

Trip Planner

Search our weather history database for the weather conditions in past years. The results will help you decide how hot, cold, wet, or windy it might be!

Date:

Astronomy

Jul. 21, 2013 Rise Set
Actual Time 5:55 AM PDT 8:03 PM PDT
Civil Twilight 5:26 AM PDT 8:31 PM PDT
Nautical Twilight 4:51 AM PDT 9:06 PM PDT
Astronomical Twilight 4:14 AM PDT 9:43 PM PDT
Moon 7:07 PM PDT (7/21) 4:45 AM PDT (7/21)
Length of Visible Light 15h 04m
Length of Day
14h 08m
Waxing Gibbous, 99% of the Moon is Illuminated
Jul 21
Waxing Gibbous
Jul 22
Full
Jul 29
Last Quarter
Aug 6
New
Aug 14
First Quarter

Hourly Weather History & Observations

Time (PDT) Temp. Heat Index Dew Point Humidity Pressure Visibility Wind Dir Wind Speed Gust Speed Precip Events Conditions
12:56 AM 81.0 °F 80.7 °F 55.0 °F 41% 29.76 in 10.0 mi WSW 11.5 mph - N/A   Clear
1:56 AM 79.0 °F - 55.0 °F 44% 29.76 in 10.0 mi WSW 8.1 mph - N/A   Clear
2:56 AM 80.1 °F 80.2 °F 55.9 °F 43% 29.76 in 10.0 mi WSW 8.1 mph - N/A   Clear
3:56 AM 78.1 °F - 55.9 °F 46% 29.78 in 10.0 mi West 4.6 mph - N/A   Clear
4:56 AM 75.0 °F - 55.9 °F 51% 29.80 in 10.0 mi North 6.9 mph - N/A   Clear
5:56 AM 75.0 °F - 55.9 °F 51% 29.78 in 10.0 mi West 10.4 mph - N/A   Clear
6:56 AM 77.0 °F - 53.1 °F 43% 29.81 in 10.0 mi NNW 3.5 mph - N/A   Clear
7:56 AM 82.0 °F 81.2 °F 53.1 °F 37% 29.78 in 10.0 mi West 8.1 mph - N/A   Clear
8:56 AM 87.1 °F 85.3 °F 55.0 °F 33% 29.81 in 10.0 mi Calm Calm - N/A   Clear
9:56 AM 87.1 °F - 52.0 °F 30% 29.83 in 10.0 mi ESE 6.9 mph - N/A   Clear
10:56 AM 89.1 °F 86.9 °F 54.0 °F 30% 29.83 in 10.0 mi Calm Calm - N/A   Clear
11:56 AM 91.0 °F 88.9 °F 55.0 °F 29% 29.82 in 10.0 mi West 10.4 mph - N/A   Clear
12:56 PM 89.1 °F 88.0 °F 57.9 °F 35% 29.83 in 10.0 mi WSW 15.0 mph - N/A   Overcast
1:56 PM 89.1 °F 87.7 °F 57.0 °F 34% 29.83 in 10.0 mi SW 13.8 mph - N/A   Clear
2:56 PM 87.1 °F 86.1 °F 57.9 °F 37% 29.83 in 10.0 mi SW 15.0 mph - N/A   Clear
3:56 PM 87.1 °F 86.1 °F 57.9 °F 37% 29.82 in 10.0 mi SW 15.0 mph - N/A   Clear
4:56 PM 86.0 °F - 52.0 °F 31% 29.82 in 10.0 mi WSW 17.3 mph 23.0 mph N/A   Clear
5:56 PM 84.9 °F - 52.0 °F 32% 29.81 in 10.0 mi SW 20.7 mph - N/A   Clear
6:56 PM 84.0 °F - 48.0 °F 28% 29.82 in 10.0 mi SW 17.3 mph - N/A   Clear
7:56 PM 82.0 °F - 48.9 °F 31% 29.82 in 10.0 mi SW 10.4 mph - N/A   Clear
8:56 PM 80.1 °F - 48.9 °F 34% 29.85 in 10.0 mi West 11.5 mph - N/A   Mostly Cloudy
9:56 PM 80.1 °F - 48.9 °F 34% 29.88 in 10.0 mi WSW 9.2 mph - N/A   Partly Cloudy
10:56 PM 73.0 °F - 57.9 °F 59% 29.91 in 10.0 mi WSW 11.5 mph - 0.01 in Rain Light Rain
11:56 PM 73.0 °F - 60.1 °F 64% 29.93 in 10.0 mi Calm Calm - 0.00 in   Overcast